Regional Weather Roundup
Issued by NWS

Home | Current Version | Previous Version | Graphics & Text | Print | Product List | Glossary On
Versions: 1 2 3 4 5 6 7 8 9 10 11 12 13 14 15 16 17 18 19 20 21 22 23 24 25 26 27 28 29 30 31 32 33 34 35 36 37 38 39 40 41 42 43 44 45 46 47 48 49 50
000
ASUS43 KBIS 300510
RWRND

NORTH DAKOTA REGIONAL WEATHER ROUNDUP
NATIONAL WEATHER SERVICE BISMARCK ND
1200 AM CDT MON MAY 30 2016

NOTE: "FAIR" INDICATES FEW OR NO CLOUDS BELOW 12,000 FEET WITH NO
SIGNIFICANT WEATHER AND/OR OBSTRUCTIONS TO VISIBILITY.


NDZ001>003-009>011-017-300600-
NORTHWEST NORTH DAKOTA

CITY           SKY/WX    TMP DP  RH WIND       PRES   REMARKS
WILLISTON      CLEAR     50  43  77 CALM      29.93S
MINOT          PTCLDY    58  46  64 CALM      29.92S
MINOT AFB      CLEAR     55  45  70 S7        29.91S
$$

NDZ018>021-031>035-040>046-300600-
SOUTHWEST NORTH DAKOTA

CITY           SKY/WX    TMP DP  RH WIND       PRES   REMARKS
BISMARCK       CLEAR     55  51  86 SE5       29.96R
DICKINSON      CLOUDY    54  46  74 S8        29.95R
GARRISON         N/A     59  46  62 CALM      29.94S
HETTINGER ARPT CLEAR     55  49  80 S7        29.99S
$$

NDZ004>008-012>016-024-026-027-054-300600-
NORTHEAST NORTH DAKOTA

CITY           SKY/WX    TMP DP  RH WIND       PRES   REMARKS
GRAND FORKS    CLEAR     55  48  77 S3        29.91S
GRND FRKS AFB  CLEAR     55  51  86 SW3       29.92S
DEVILS LAKE    CLEAR     55  50  83 CALM      29.94S
$$

NDZ022-023-025-028>030-036>039-047>053-300600-
SOUTHEAST NORTH DAKOTA

CITY           SKY/WX    TMP DP  RH WIND       PRES   REMARKS
FARGO          CLEAR     58  49  72 CALM      29.93S
JAMESTOWN      CLEAR     59  47  64 SW6       29.96R
$$





USA.gov is the U.S. government's official web portal to all federal, state and local government web resources and services.